Nogales, AZ

1:43 AM MST on May 26, 2017 (GMT -0700)
Nogales International

Weather History for KOLS - January, 2014

Change the Weather History Date:

Thursday, January 9, 2014

  Actual Average (KFHU) Record (KFHU)
Temperature  
Mean Temperature 46 °F -  
Max Temperature 63 °F 59 °F 75 °F (2017)
Min Temperature 30 °F 37 °F 23 °F (1986)
Degree Days  
Heating Degree Days 18    
Moisture  
Dew Point 18 °F    
Average Humidity 38    
Maximum Humidity 59    
Minimum Humidity 16    
Precipitation  
Precipitation 0.00 in - - ()
Sea Level Pressure  
Sea Level Pressure 30.00 in    
Wind  
Wind Speed 2 mph (SSE)    
Max Wind Speed 9 mph    
Max Gust Speed -    
Visibility 10 miles    
Events      
Averages and records for this station are not official NWS values.
T = Trace of Precipitation, MM = Missing Value Source: NWS Daily Summary

Daily Weather History Graph

Daily Weather History Graph

Search for Another Location

Airport or City:

Trip Planner

Search our weather history database for the weather conditions in past years. The results will help you decide how hot, cold, wet, or windy it might be!

Date:

Astronomy

Jan. 09, 2014 Rise Set
Actual Time 7:23 AM MST 5:37 PM MST
Civil Twilight 6:57 AM MST 6:04 PM MST
Nautical Twilight 6:27 AM MST 6:34 PM MST
Astronomical Twilight 5:57 AM MST 7:03 PM MST
Moon 12:59 PM MST (1/9) 1:43 AM MST (1/9)
Length of Visible Light 11h 07m
Length of Day
10h 14m
Waxing Gibbous, 66% of the Moon is Illuminated
Jan 9
Waxing Gibbous
Jan 15
Full
Jan 23
Last Quarter
Jan 30
New
Feb 6
First Quarter

Hourly Weather History & Observations

Time (MST) Temp. Windchill Dew Point Humidity Pressure Visibility Wind Dir Wind Speed Gust Speed Precip Events Conditions
12:54 AM 36.0 °F - 19.0 °F 50% 30.01 in 10.0 mi Calm Calm - N/A   Clear
1:54 AM 35.1 °F 32.2 °F 19.0 °F 52% 30.01 in 10.0 mi ENE 3.5 mph - N/A   Clear
2:54 AM 35.1 °F - 18.0 °F 50% 30.01 in 10.0 mi Calm Calm - N/A   Clear
3:54 AM 34.0 °F - 19.0 °F 54% 30.01 in 10.0 mi Calm Calm - N/A   Clear
4:54 AM 33.1 °F - 19.0 °F 56% 30.01 in 10.0 mi Calm Calm - N/A   Clear
5:54 AM 30.9 °F - 18.0 °F 59% 30.02 in 10.0 mi Calm Calm - N/A   Clear
6:54 AM 32.0 °F 27.5 °F 19.0 °F 59% 30.04 in 10.0 mi ENE 4.6 mph - N/A   Clear
7:54 AM 33.1 °F - 18.0 °F 54% 30.06 in 10.0 mi Calm Calm - N/A   Clear
8:54 AM 37.9 °F - 19.9 °F 48% 30.06 in 10.0 mi Calm Calm - N/A   Clear
9:54 AM 45.0 °F - 19.9 °F 37% 30.06 in 10.0 mi Calm Calm - N/A   Clear
10:54 AM 52.0 °F - 19.9 °F 28% 30.03 in 10.0 mi Calm Calm - N/A   Clear
11:54 AM 59.0 °F - 17.1 °F 20% 30.00 in 10.0 mi SSW 3.5 mph - N/A   Clear
12:54 PM 62.1 °F - 15.1 °F 16% 29.96 in 10.0 mi SSW 4.6 mph - N/A   Clear
1:54 PM 62.1 °F - 15.1 °F 16% 29.92 in 10.0 mi SSE 6.9 mph - N/A   Clear
2:54 PM 63.0 °F - 16.0 °F 16% 29.90 in 10.0 mi South 9.2 mph - N/A   Clear
4:54 PM 60.1 °F - 15.1 °F 17% 29.93 in 10.0 mi West 4.6 mph - N/A   Clear
5:54 PM 55.9 °F - 12.9 °F 18% 29.96 in 10.0 mi WSW 4.6 mph - N/A   Clear
6:54 PM 46.9 °F - 17.1 °F 30% 30.00 in 10.0 mi Calm Calm - N/A   Clear
7:54 PM 44.1 °F 40.8 °F 18.0 °F 35% 30.00 in 10.0 mi ESE 5.8 mph - N/A   Clear
8:54 PM 45.0 °F 43.5 °F 18.0 °F 34% 30.01 in 10.0 mi South 3.5 mph - N/A   Clear
9:54 PM 46.9 °F - 19.0 °F 33% 29.99 in 10.0 mi Calm Calm - N/A   Clear
10:54 PM 42.1 °F 39.2 °F 21.0 °F 43% 30.00 in 10.0 mi Variable 4.6 mph - N/A   Clear
11:54 PM 37.9 °F 35.5 °F 21.9 °F 53% 29.97 in 10.0 mi East 3.5 mph - N/A   Clear